User: anonymous   Login
Location: Oshawa
(43.9000°N, 78.8670°W)
Time: 04:36:57
(UTC-05:00)
Language:

Cosmos 1805 Rocket - Orbit

View from above orbital plane
View from above orbital plane
View from above satellite
View from above satellite

Ground track
Ground track

The orbit data is extracted from the following two-line orbital elements,

1 17192U 86097B   16343.84338179  .00000112  00000-0  10670-4 0  9992
2 17192  82.5079  75.1611 0017209  14.1072 121.6547 14.83479037620468
Epoch (UTC): 08 December 2016 20:14:28
Eccentricity: 0.0017209
inclination: 82.5079°
perigee height: 606 km
apogee height: 630 km
right ascension of ascending node: 75.1611°
argument of perigee: 14.1072°
revolutions per day: 14.83479037
mean anomaly at epoch: 121.6547°
orbit number at epoch: 62046

The dashed part of the orbit path shows where the satellite is in the earth's shadow,  

DLR